sat.trackr.live / text

‹ back to catalog

FLOCK 4Q-33

NORAD 58308 · 2023-174BE

PAYLOAD ACTIVE UNKNOWN

§ Identity

Operator
Country
US
Launch date
2023-11-11
Launch site
AFWTR
Launch vehicle
Mass (kg)
RCS (m²)

Purposes: earth_obs

External: N2YO · Heavens-Above · Gunter

§ Orbital elements

Epoch: 2026-05-25T05:30:35.666208Z

Period
92.54 min
Inclination
97.3854°
Eccentricity
0.0005966
Mean motion
15.56054968 rev/d
Perigee alt
395.0 km
Apogee alt
403.1 km
Semi-major
6,777.2 km
B*
4.8614e-4
RAAN
236.4701°
Arg perigee
195.9073°
Mean anomaly
164.1995°
Rev number
14,226

§ Raw data

FLOCK 4Q-331 58308U 23174BE  26145.22957947  .00033889  00000+0  48614-3 0  99902 58308  97.3854 236.4701 0005966 195.9073 164.1995 15.56054968142264

JSON: /api/v1/satellites/58308 · /tle

For live sub-satellite position, see the globe view (requires WebGL).

§ Visibility from observer

Set your observer location to see the next 7 days of passes ≥ 10°. The values pass through the URL so the page stays shareable.

No JS? Fill the form by hand. The geolocation button needs JavaScript.